WetterOnline ( https://www.wetteronline.de )

Wetter aktuell Marina di Camerota

Aktuelles Wetter: Capo Palinuro (185m)

6-stündlich | Neueste Meldungen
Ortszeit Temperatur Wetter
Di, 21.09. 14:00 26.2° C leicht bewölkt
Di, 21.09. 8:00 20.0° C wolkenlos
Di, 21.09. 2:00 21.2° C wolkig
Mo, 20.09. 20:00 22.2° C leicht bewölkt
Mo, 20.09. 14:00 25.8° C fast wolkenlos
Mo, 20.09. 8:00 21.6° C wolkig
Mo, 20.09. 2:00 21.0° C wolkenlos
So, 19.09. 20:00 24.0° C leicht bewölkt
Ortszeit Temperatur Wetter
Di, 21.09. 19:00 22.8° C leicht bewölkt
Di, 21.09. 18:00 23.6° C leicht bewölkt
Di, 21.09. 17:00 24.4° C leicht bewölkt
Di, 21.09. 16:00 25.6° C leicht bewölkt
Di, 21.09. 15:00 26.0° C leicht bewölkt
Di, 21.09. 14:00 26.2° C leicht bewölkt
Ortszeit Relative Feuchte Sichtweite
Di, 21.09. 14:00 79% 20 km
Di, 21.09. 8:00 87% 20 km
Di, 21.09. 2:00 97% 20 km
Mo, 20.09. 20:00 88% 20 km
Mo, 20.09. 14:00 77% 20 km
Mo, 20.09. 8:00 91% 20 km
Mo, 20.09. 2:00 90% 20 km
So, 19.09. 20:00 96% 20 km
Ortszeit Relative Feuchte Sichtweite
Di, 21.09. 19:00 94% 20 km
Di, 21.09. 18:00 88% 20 km
Di, 21.09. 17:00 83% 20 km
Di, 21.09. 16:00 81% 20 km
Di, 21.09. 15:00 80% 20 km
Di, 21.09. 14:00 79% 20 km
Ortszeit Niederschlagsmenge Niederschlagsart
Di, 21.09. 14:00 0.0 l/m2 in 6 Std. -
Di, 21.09. 8:00 0.0 l/m2 in 12 Std. -
Di, 21.09. 2:00 0.0 l/m2 in 6 Std. -
Mo, 20.09. 20:00 0.0 l/m2 in 12 Std. -
Mo, 20.09. 14:00 0.0 l/m2 in 6 Std. -
Mo, 20.09. 8:00 0.0 l/m2 in 12 Std. -
Mo, 20.09. 2:00 0.0 l/m2 in 6 Std. -
So, 19.09. 20:00 0.0 l/m2 in 12 Std. -
Ortszeit Niederschlagsmenge Niederschlagsart
Di, 21.09. 19:00 keine Meldung -
Di, 21.09. 18:00 keine Meldung -
Di, 21.09. 17:00 keine Meldung -
Di, 21.09. 16:00 keine Meldung -
Di, 21.09. 15:00 keine Meldung -
Di, 21.09. 14:00 keine Meldung -
Ortszeit Stärke Spitze Richtung
km/h Bft. km/h Grad Sektor
Di, 21.09. 14:00 6 1 - 220° SW
Di, 21.09. 8:00 13 3 - 70° O
Di, 21.09. 2:00 7 2 - 30° NO
Mo, 20.09. 20:00 13 3 - 10° N
Mo, 20.09. 14:00 15 3 - 10° N
Mo, 20.09. 8:00 11 2 - 310° NW
Mo, 20.09. 2:00 11 2 - 320° NW
So, 19.09. 20:00 11 2 - 340° N
Ortszeit Stärke Spitze Richtung
km/h Bft. km/h Grad Sektor
Di, 21.09. 19:00 13 3 - 300° NW
Di, 21.09. 18:00 15 3 - 260° W
Di, 21.09. 17:00 11 2 - 230° SW
Di, 21.09. 16:00 13 3 - 240° SW
Di, 21.09. 15:00 9 2 - 240° SW
Di, 21.09. 14:00 6 1 - 220° SW
Ortszeit Untergrenze Bedeckung Gattung
total tief tief mittel hoch
Di, 21.09. 14:00 900 m 4/8 2/8 Cu - Ci
Di, 21.09. 8:00 - 0/8 0/8 - - -
Di, 21.09. 2:00 2400 m 7/8 7/8 - As -
Mo, 20.09. 20:00 6000 m 4/8 4/8 - - Ci
Mo, 20.09. 14:00 1200 m 2/8 1/8 Cu - Ci
Mo, 20.09. 8:00 600 m 6/8 6/8 Cu - -
Mo, 20.09. 2:00 - 0/8 0/8 - - -
So, 19.09. 20:00 750 m 5/8 5/8 Cu - -
Ortszeit Bedeckungsgrad in Achtel und Wolkenuntergrenze
Di, 21.09. 19:00 3(2100m)
Di, 21.09. 18:00 1(2100m)
Di, 21.09. 17:00 1(900m)
Di, 21.09. 16:00 2(900m)
Di, 21.09. 15:00 2(900m)
Di, 21.09. 14:00 2(900m) 3(6000m)
Ortszeit Luftdruck NN (hPa) Tendenz (hPa in 3 Std.)
Di, 21.09. 14:00 1021 + 0,2
Di, 21.09. 8:00 1019 + 0,4
Di, 21.09. 2:00 1019 - 0,1
Mo, 20.09. 20:00 1017 + 0,4
Mo, 20.09. 14:00 1017 + 1,9
Mo, 20.09. 8:00 1014 - 0,1
Mo, 20.09. 2:00 1015 + 0,8
So, 19.09. 20:00 1013 - 1,1
Ortszeit Luftdruck NN (hPa) Tendenz (hPa in 3 Std.)
Di, 21.09. 19:00 1020 - 0,1
Di, 21.09. 18:00 1020 - 0,2
Di, 21.09. 17:00 1020 - 0,2
Di, 21.09. 16:00 1020 - 0,1
Di, 21.09. 15:00 1021 + 0,2
Di, 21.09. 14:00 1021 + 0,2
Ortszeit Schneehöhe (cm)
Di, 21.09. 14:00 -
Di, 21.09. 8:00 0
Di, 21.09. 2:00 -
Mo, 20.09. 20:00 -
Mo, 20.09. 14:00 -
Mo, 20.09. 8:00 0
Mo, 20.09. 2:00 -
So, 19.09. 20:00 -
Ortszeit Schneehöhe (cm)
Di, 21.09. 19:00 -
Di, 21.09. 18:00 -
Di, 21.09. 17:00 -
Di, 21.09. 16:00 -
Di, 21.09. 15:00 -
Di, 21.09. 14:00 -
Link zu dieser Seite / Seite empfehlen

Das Wetter in ...